Regional Weather Roundup
Issued by NWS

Home | Current Version | Previous Version | Text Only | Print | Product List | Glossary On
Versions: 1 2 3 4 5 6 7 8 9 10 11 12 13 14 15 16 17 18 19 20 21 22 23 24 25 26 27 28 29 30 31 32 33 34 35 36 37 38 39 40 41 42 43 44 45 46 47 48 49 50
000
ASHW40 PHFO 300713
RWRHI

WEATHER ROUNDUP FOR HAWAII
NATIONAL WEATHER SERVICE HONOLULU HI
900 PM HST SUN MAY 29 2016

THIS IS AN AUTOMATED REPORT THAT HAS NOT BEEN QUALITY CONTROLLED.

NOTE..."FAIR" INDICATES FEW OR NO CLOUDS BELOW 12,000 FEET WITH NO
SIGNIFICANT WEATHER AND/OR OBSTRUCTIONS TO VISIBILITY.

* - THESE SITES REPORT LIMITED FIELDS

HIZ001>004-300800-
KAUAI-NIIHAU-

CITY           SKY/WX    TMP DP  RH WIND       PRES   REMARKS
LIHUE APT      PTCLDY    73  69  87 N6        30.06R
PORT ALLEN*      N/A     75 N/A N/A E8          N/A
POIPU*           N/A     72 N/A N/A N3          N/A
PRINCEVILLE*     N/A     75 N/A N/A N2          N/A
KOKOLE POINT*  NOT AVBL
MOLOAA DAIRY*    N/A     73  68  83 CALM        N/A
WAIMEA HTS*    NOT AVBL
PUU OPAE*      NOT AVBL
PUU LUA*       NOT AVBL
MAKAHA RIDGE*  NOT AVBL
$$

HIZ005>011-300800-
OAHU-

CITY           SKY/WX    TMP DP  RH WIND       PRES   REMARKS
HONOLULU       MOCLDY    74  70  87 CALM      30.04R
KALAELOA       MOCLDY    75  68  78 NE5       30.05R
KANEOHE MCB    PTCLDY    76  66  71 CALM      30.02R
WHEELER FIELD  FAIR      71  69  94 N5        30.05R
BELLOWS*       NOT AVBL
KAHUKU*        NOT AVBL
WHEELER*       NOT AVBL
WAIANAE HARBOR NOT AVBL
DILLINGHAM*      N/A     73  64  73 MISG        N/A
KAHUKU TRN*      N/A     72  64  78 CALM        N/A
KAWAILOA*        N/A     70  63  78 NE3         N/A
KII*             N/A     77  66  69 NE6         N/A
MAKUA RANGE*     N/A     75  64  69 E7G14       N/A
OAHU FOREST NW NOT AVBL
SCHOFIELD BRK*   N/A     70  64  83 MISG        N/A
SCHOFIELD S*   NOT AVBL
WAIANAE VLY*   NOT AVBL
KUAOKALA*      NOT AVBL
HONOULIUULI*   NOT AVBL
MOKUOLOE IS*   NOT AVBL
PALEHUA*       NOT AVBL
WAIAWA PHB*    NOT AVBL
$$

HIZ012>013-300800-
MOLOKAI-

CITY           SKY/WX    TMP DP  RH WIND       PRES   REMARKS
MOLOKAI AIRPT  MOCLDY    73  66  78 N5        30.06R
KALAUPAPA      NOT AVBL
MAKAPULAPAI*   NOT AVBL
MOLOKAI 1*     NOT AVBL
PUU ALII*      NOT AVBL
$$

HIZ016-300800-
KAHOOLAWE-

CITY           SKY/WX    TMP DP  RH WIND       PRES   REMARKS
KAHOOLAWE*     NOT AVBL
HAKIOAWA*      NOT AVBL
HONOKANAIA*      N/A     77  66  68 E6        29.97R
KANELOA*         N/A     75  68  78 E5G12       N/A
KEALIALALO*    NOT AVBL
LUA MAKIKA*    NOT AVBL
$$

HIZ014>015-300800-
LANAI-

CITY           SKY/WX    TMP DP  RH WIND       PRES   REMARKS
LANAI CITY     FAIR      70  66  87 CALM      30.10R
LANAI 1*       NOT AVBL
$$

HIZ017>028-300800-
MAUI-

CITY           SKY/WX    TMP DP  RH WIND       PRES   REMARKS
KAHULUI        PTCLDY    74  68  81 CALM      30.03R
KAPALUA-W MAUI NOT AVBL
HANA AIRPORT   NOT AVBL
HANA*            N/A     75 N/A N/A S3          N/A
HALEAKALA SUMM   N/A     43  30  61 NW15        N/A
MAALAEA BAY*   NOT AVBL
HALEAKALA*     NOT AVBL
KAUPO GAP*     NOT AVBL
KULA 1*          N/A     48  41  76 E3          N/A
$$

HIZ023>026-300800-
BIG ISLAND OF HAWAII COAST AND LOWER SLOPES-

CITY           SKY/WX    TMP DP  RH WIND       PRES   REMARKS
KAILUA KONA    CLOUDY    79  68  69 SE8       30.03R
HILO           CLEAR     75  66  73 S3        30.03R
HONOKAA*         N/A     66 N/A N/A VRB1        N/A
KAWAIHAE MWT*    N/A     79 N/A N/A S7          N/A
KAWAIHAE*      NOT AVBL
SOUTH POINT*     N/A     70 N/A N/A NW6         N/A
UPOLU AIRPORT*   N/A    N/A N/A N/A SE8         N/A
KAMUELA*       NOT AVBL
HAKALAU*         N/A     48  46  93 SW3         N/A
KALOKO-HONOKO* NOT AVBL
PALI 2*          N/A     63  59  88 SE1         N/A
KEALAKOMO*       N/A     73  63  68 N3          N/A
KAUPULEHU*     NOT AVBL
KAPAPALA*        N/A     63  61  94 NW5         N/A
LOWER KAHUKU*  NOT AVBL
PUHE CS*       NOT AVBL
PUHO CS*       NOT AVBL
PTA KEAMUKU*     N/A     61  59  94 CALM        N/A
WAIKOLOA*      NOT AVBL
$$

HIZ027>028-300800-
BIG ISLAND OF HAWAII INTERIOR AND SUMMMITS-

CITY           SKY/WX    TMP DP  RH WIND       PRES   REMARKS
BRADSHAW FIELD MOCLDY    54  54 100 CALM      30.35R
MK VISITOR CEN   N/A     46  41  81 E3          N/A
MAUNA KEA*       N/A     39   7  26 N12         N/A
MAUNA LOA*     NOT AVBL
MAUNA LOA 1*   NOT AVBL
PTA KIPUKA*      N/A     57  57 100 N3G9        N/A
PTA RANGE 17*    N/A     55  54  94 NW3G12      N/A
PTA WEST*        N/A     61  59  94 W3          N/A
NENE CABIN*    NOT AVBL
AHUMOA*        NOT AVBL
PTA PORTABLE*  NOT AVBL
PUU MALI*        N/A     52  41  66 SW3G10      N/A
$$

HIC003-300800-
NORTHWEST ISLANDS-

CITY           SKY/WX    TMP DP  RH WIND       PRES   REMARKS
MIDWAY ISLAND  PTCLDY    73  66  78 E8        30.17R
MIDWAY NOS*    NOT AVBL
FRENCH FRIGATE NOT AVBL
$$

PHZ110>124-180-300800-
BUOY REPORTS

STATION/POSITION TIME  TEMP    WIND        PRES    WAVE   SWELL
                       AIR SEA DIR/SP/G            HT/PER HT/DIR
                 (UTC) (F)     (DEG/KT/KT) (MB)    (FT/S) (FT/D)
BUOY 51001       0600   78 80   60/ 12/ 14 1016.8R
BUOY 51101       0650   75 79   50/ 14/ 17 1018.5R   5/13   5/290
BUOY 51100       NOT AVBL
BUOY 51002       0650   78 80  100/  8/ 10 1016.4R   5/15   5/170
BUOY 51003       0650   79 81   60/  6/  8 1016.6R   4/14   3/120
BUOY 51004       0650   77 79  110/  8/ 10 1016.6R   6/16   5/140
BARBERS PT BUOY  NOT AVBL
WAIMEA BAY BUOY  0604      79                N/A     2/13   2/300
KAILUA BAY BUOY  0611      78                N/A     3/ 8   2/140
LANAI BUOY       0615      80                N/A     3/14   2/190
BARBERS PT 2     0703      79                N/A     3/13   3/200
PAUWELA MAUI     0609      79                N/A     4/ 9   2/ 50
HILO             0612      79                N/A     4/14   2/110
KANEOHE BAY BUOY 0606      78                N/A     2/ 8
HANALEI KAUAI    NOT AVBL
KAHULUI HARBOR   0600   78 80   50/  5/  6 1016.5R
HONOLULU HARBOR  0600   73 80  210/  2/  4 1017.5R
KILO NALU        NOT AVBL
HILO HARBOR      0600   77 79  160/  2/  5 1016.2R
MOKUOLOE         0600   78 83   20/  6/  7 1016.8R
NAWILIWILI       0600   74 80  260/  5/  5 1016.9R
WHOTS BUOY       NOT AVBL
BUOY 51028       NOT AVBL
$$

......................KEY........................................
  SKY/WX - SKY CONDITIONS/PRESENT WEATHER
  TMP    - TEMPERATURE IN FAHRENHEIT
  DWPT   - DEWPOINT IN FAHRENHEIT
  RH     - RELATIVE HUMIDITY IN PERCENT
  WIND   - DIRECTION AND SPEED /MPH FOR ISLANDS...KTS FOR BUOYS/
  PRES   - MEAN SEA LEVEL PRESSURE IN INCHES OF HG
  VSB    - VISIBILITY IN MILES
  HX     - HEAT INDEX
  WCI    - WIND CHILL INDEX
  VRB    - VARIABLE WIND DIRECTION
  N/A    - NOT AVAILABLE




USA.gov is the U.S. government's official web portal to all federal, state and local government web resources and services.